DW1105 Weather Reports


time (UTC)temp
F
wind
direction
speed
knots
gust
knots
rain 1hr
in
rain 24hr
in
rain mn
in
humidity
%
barometer
mb
20260510111318 51 310 0.0 0.0 0.00 0.34 0.00 97 1011.6
20260510110819 51 310 0.0 0.0 0.00 0.34 0.00 97 1011.6
20260510110323 50 312 0.0 0.0 0.00 0.34 0.00 97 1011.6
20260510105840 50 312 0.0 1.7 0.00 0.34 0.00 97 1011.5
20260510105342 50 312 0.0 1.7 0.00 0.34 0.00 97 1011.5
20260510104823 50 312 0.0 0.0 0.00 0.34 0.00 97 1011.6
20260510104322 50 312 0.0 0.0 0.00 0.34 0.00 97 1011.5
20260510103820 50 312 0.0 0.0 0.00 0.34 0.00 97 1011.2
20260510103338 50 312 0.0 0.0 0.00 0.34 0.00 97 1011.3
20260510102813 50 312 0.0 0.0 0.00 0.34 0.00 97 1011.2
20260510102311 50 312 0.0 0.0 0.00 0.34 0.00 97 1011.1
20260510101836 50 312 0.0 0.0 0.00 0.34 0.00 97 1011.2
20260510101316 50 312 0.0 0.0 0.00 0.34 0.00 97 1011.2
20260510100836 50 312 0.0 0.0 0.00 0.34 0.00 97 1011.3
20260510100317 50 312 0.0 0.0 0.00 0.34 0.00 97 1011.1
20260510095816 50 312 0.0 0.0 0.00 0.34 0.00 97 1011.0
20260510095318 50 312 0.0 0.0 0.00 0.34 0.00 97 1011.1
20260510094820 50 312 0.0 0.0 0.00 0.34 0.00 97 1011.3
20260510094323 50 312 0.0 0.0 0.00 0.34 0.00 97 1011.3
20260510093821 50 312 0.0 0.0 0.00 0.34 0.00 97 1011.3
20260510093324 50 312 0.0 0.0 0.00 0.34 0.00 97 1011.3
20260510092821 50 312 0.0 0.0 0.00 0.34 0.00 97 1011.1
20260510092338 50 312 0.0 0.0 0.00 0.34 0.00 97 1011.1
20260510091833 50 312 0.0 0.0 0.00 0.34 0.00 97 1011.1
20260510091314 50 312 0.0 0.0 0.00 0.34 0.00 97 1011.2
20260510090837 50 312 0.0 0.0 0.00 0.34 0.00 97 1011.2
20260510090315 50 312 0.0 0.0 0.00 0.34 0.00 97 1011.2
20260510085816 50 312 0.0 0.0 0.00 0.34 0.00 97 1011.3
20260510085334 50 312 0.0 0.0 0.00 0.34 0.00 97 1011.5
20260510084838 50 312 0.0 0.0 0.00 0.34 0.00 97 1011.7
20260510084313 50 312 0.0 1.7 0.00 0.34 0.00 97 1011.7
20260510083820 50 312 0.0 3.5 0.00 0.34 0.00 97 1011.6
20260510083318 50 325 0.0 3.5 0.00 0.34 0.00 97 1011.6
20260510082820 50 323 0.9 3.5 0.00 0.34 0.00 97 1011.6
20260510082339 50 323 0.9 3.5 0.00 0.34 0.00 97 1011.6
20260510081840 50 321 0.9 5.2 0.00 0.34 0.00 97 1011.6
20260510081339 50 329 2.6 5.2 0.00 0.34 0.00 97 1011.7
20260510080818 50 327 2.6 5.2 0.00 0.34 0.00 97 1011.4
20260510080323 50 330 1.7 7.0 0.00 0.34 0.00 97 1011.2
20260510075822 50 9 3.5 7.0 0.00 0.34 0.00 97 1011.5
20260510075322 50 303 0.9 7.0 0.00 0.34 0.00 97 1011.2
20260510074822 50 336 2.6 7.0 0.00 0.34 0.00 97 1011.2
20260510074321 50 320 0.0 0.0 0.00 0.34 0.00 97 1010.7
20260510073817 50 320 0.0 0.0 0.00 0.34 0.00 97 1010.8
20260510073315 50 320 0.0 2.6 0.00 0.34 0.00 96 1010.8
20260510072814 50 320 0.9 2.6 0.00 0.34 0.00 96 1010.7
20260510072338 50 315 0.0 1.7 0.00 0.34 0.00 96 1010.7
20260510071834 50 315 0.0 2.6 0.00 0.34 0.00 96 1010.5
20260510071316 50 233 0.0 2.6 0.00 0.34 0.00 96 1010.6
20260510070814 50 341 0.0 2.6 0.00 0.34 0.00 96 1010.7
20260510070318 50 347 1.7 2.6 0.00 0.34 0.00 97 1010.7
20260510065835 50 344 0.9 2.6 0.00 0.34 0.00 96 1010.7
20260510065322 50 281 0.9 2.6 0.00 0.34 0.00 96 1010.7
20260510064818 51 277 0.0 1.7 0.00 0.34 0.00 96 1010.8
20260510064322 51 5 0.0 3.5 0.00 0.34 0.00 96 1010.8
20260510063818 51 289 0.9 3.5 0.00 0.34 0.00 96 1010.8
20260510063343 51 313 0.0 3.5 0.00 0.34 0.00 96 1010.8
20260510062819 51 319 0.0 3.5 0.00 0.34 0.00 96 1010.9
20260510062321 51 322 0.0 2.6 0.00 0.34 0.00 96 1010.9
20260510061823 51 326 0.9 2.6 0.00 0.34 0.00 96 1010.8
20260510061326 51 323 1.7 2.6 0.00 0.34 0.00 96 1010.8
20260510060822 51 325 1.7 2.6 0.00 0.34 0.00 96 1010.8
20260510060346 51 355 0.0 1.7 0.00 0.34 0.00 96 1010.8
20260510055821 51 360 0.9 1.7 0.00 0.34 0.00 96 1010.6
20260510055316 51 15 0.0 0.0 0.00 0.34 0.00 96 1010.6
20260510054813 51 15 0.0 0.0 0.00 0.34 0.00 96 1010.7
20260510054338 51 15 0.0 0.0 0.00 0.34 0.00 96 1010.7
20260510053837 51 15 0.0 0.0 0.00 0.34 0.00 96 1010.6
20260510053318 51 15 0.0 0.0 0.00 0.34 0.00 96 1010.7
20260510052816 51 15 0.0 0.0 0.00 0.34 0.00 96 1010.7
20260510052339 51 15 0.0 0.0 0.00 0.34 0.00 96 1010.6
20260510051814 51 19 0.0 0.0 0.00 0.34 0.00 96 1010.7
20260510051319 51 19 0.0 0.0 0.00 0.34 0.00 96 1010.7
20260510050820 51 19 0.0 0.0 0.00 0.34 0.00 96 1010.8
20260510050323 51 19 0.0 0.0 0.00 0.34 0.00 96 1010.9
20260510045821 51 19 0.0 1.7 0.00 0.34 0.00 96 1010.9
20260510045339 51 19 0.0 1.7 0.00 0.34 0.00 96 1010.9
20260510044814 51 61 0.0 0.0 0.00 0.34 0.00 96 1010.8
20260510044333 51 74 0.0 0.0 0.00 0.34 0.00 96 1010.8
20260510043814 51 74 0.0 0.0 0.00 0.34 0.00 96 1010.9
20260510043315 51 74 0.0 0.0 0.00 0.34 0.00 96 1010.8
20260510042837 51 74 0.0 0.0 0.00 0.34 0.00 96 1010.9
20260510042316 51 74 0.0 0.0 0.00 0.34 0.00 96 1011.0
20260510041816 51 59 0.0 0.0 0.00 0.34 0.00 96 1010.9
20260510041317 51 59 0.0 0.0 0.00 0.34 0.00 96 1010.9
20260510040820 51 59 0.0 0.0 0.00 0.34 0.00 96 1010.8
20260510040321 51 59 0.0 0.0 0.00 0.34 0.00 96 1010.8
20260510035820 51 59 0.0 0.0 0.00 0.34 0.34 96 1010.8
20260510035320 51 59 0.0 0.0 0.00 0.34 0.34 96 1010.8
20260510034819 51 59 0.0 0.0 0.00 0.34 0.34 96 1010.8
20260510034319 50 59 0.0 0.0 0.00 0.34 0.34 96 1010.8
20260510033820 50 59 0.0 0.0 0.00 0.34 0.34 96 1010.8
20260510033321 50 59 0.0 0.0 0.00 0.34 0.34 96 1010.7
20260510032835 50 59 0.0 0.0 0.00 0.34 0.34 96 1010.7
20260510032312 50 59 0.0 0.0 0.00 0.34 0.34 96 1010.6
20260510031815 50 59 0.0 0.0 0.00 0.34 0.34 96 1010.7
20260510031311 50 59 0.0 0.0 0.00 0.34 0.34 96 1010.6
20260510030836 50 59 0.0 0.0 0.00 0.34 0.34 96 1010.4
20260510030312 50 59 0.0 0.0 0.00 0.34 0.34 96 1010.4
20260510025818 50 59 0.0 0.0 0.00 0.34 0.34 96 1010.5
20260510025317 50 59 0.0 0.9 0.00 0.34 0.34 95 1010.4
20260510024819 50 59 0.0 0.9 0.00 0.34 0.34 95 1010.4
20260510024337 50 59 0.0 0.0 0.00 0.34 0.34 95 1010.4
20260510023819 50 88 0.0 0.0 0.00 0.34 0.34 95 1010.4
20260510023315 50 88 0.0 0.0 0.00 0.34 0.34 95 1010.4
20260510022815 50 88 0.0 0.0 0.00 0.34 0.34 96 1010.5
20260510022312 50 88 0.0 0.0 0.00 0.34 0.34 95 1010.5
20260510021811 50 88 0.0 0.0 0.00 0.34 0.34 95 1010.5
20260510021333 50 88 0.0 0.0 0.00 0.34 0.34 95 1010.5
20260510020812 50 88 0.0 0.0 0.00 0.34 0.34 95 1010.6
20260510020312 50 88 0.0 0.0 0.00 0.34 0.34 95 1010.5
20260510015812 50 88 0.0 0.0 0.00 0.34 0.34 95 1010.5
20260510015334 50 88 0.0 0.0 0.00 0.34 0.34 95 1010.5
20260510014816 51 88 0.0 0.0 0.00 0.34 0.34 95 1010.5
20260510014337 51 88 0.0 0.0 0.00 0.34 0.34 95 1010.5
20260510013816 51 88 0.0 0.0 0.00 0.34 0.34 95 1010.5
20260510013337 51 88 0.0 0.0 0.00 0.34 0.34 95 1010.4
20260510012817 51 88 0.0 0.0 0.00 0.34 0.34 95 1010.6
20260510012313 51 88 0.0 0.0 0.00 0.34 0.34 95 1010.6
20260510011839 51 88 0.0 0.0 0.00 0.34 0.34 95 1010.4
20260510011314 51 88 0.0 0.0 0.00 0.34 0.34 94 1010.3
20260510010820 52 88 0.0 0.0 0.00 0.34 0.34 94 1010.3
20260510010339 52 87 0.0 0.0 0.00 0.34 0.34 94 1010.3
20260510005840 52 86 0.0 0.0 0.00 0.34 0.34 94 1010.2
20260510005319 52 86 0.0 0.0 0.00 0.34 0.34 94 1010.0
20260510004819 52 86 0.0 0.0 0.00 0.34 0.34 94 1010.0
20260510004319 52 86 0.0 0.0 0.00 0.34 0.34 94 1010.0
20260510003822 53 86 0.0 0.0 0.00 0.34 0.34 94 1009.9
20260510003320 53 86 0.0 0.0 0.00 0.34 0.34 94 1009.9
20260510002826 53 86 0.0 0.0 0.00 0.34 0.34 94 1009.9
20260510002319 53 86 0.0 0.0 0.00 0.34 0.34 94 1009.9
20260510001843 53 86 0.0 0.0 0.00 0.34 0.34 94 1009.9
20260510001323 54 86 0.0 0.0 0.00 0.34 0.34 94 1009.9
20260510000842 54 86 0.0 0.0 0.00 0.34 0.34 94 1010.0
20260510000341 54 86 0.0 0.0 0.00 0.34 0.34 94 1010.0
20260509235814 54 86 0.0 0.0 0.00 0.34 0.34 94 1010.0
20260509235315 54 86 0.0 0.0 0.00 0.34 0.34 94 1009.9
20260509234814 54 86 0.0 0.0 0.00 0.34 0.34 94 1009.8
20260509234315 54 86 0.0 0.0 0.00 0.34 0.34 94 1009.7
20260509233816 54 86 0.0 0.0 0.00 0.34 0.34 94 1009.6
20260509233316 54 86 0.0 0.0 0.00 0.34 0.34 93 1009.5
20260509232817 54 86 0.0 0.0 0.00 0.34 0.34 94 1009.5
20260509232318 54 86 0.0 0.0 0.00 0.34 0.34 93 1009.5
20260509231819 54 86 0.0 0.0 0.00 0.34 0.34 93 1009.5
20260509231318 54 86 0.0 1.7 0.00 0.34 0.34 93 1009.6
20260509230841 54 76 0.0 1.7 0.00 0.34 0.34 93 1009.5
20260509230342 54 245 0.0 0.9 0.00 0.34 0.34 93 1009.5
20260509225820 55 245 0.0 0.9 0.00 0.34 0.34 93 1009.6
20260509225322 55 232 0.0 0.9 0.00 0.34 0.34 93 1009.6
20260509224824 55 232 0.0 0.9 0.00 0.34 0.34 94 1009.7
20260509224343 55 278 0.0 0.0 0.00 0.34 0.34 94 1009.7
20260509223838 55 240 0.0 0.0 0.00 0.34 0.34 94 1009.7
20260509223314 55 294 0.0 0.0 0.00 0.34 0.34 93 1009.8
20260509222830 55 294 0.0 0.9 0.00 0.34 0.34 94 1009.9
20260509222326 55 294 0.0 0.9 0.00 0.34 0.34 94 1009.9
20260509221822 55 343 0.0 0.0 0.01 0.34 0.34 94 1010.0
20260509221339 55 343 0.0 0.9 0.01 0.34 0.34 94 1010.0
20260509220815 54 343 0.0 0.9 0.03 0.34 0.34 93 1009.9
20260509220316 55 140 0.0 0.0 0.05 0.34 0.34 94 1009.9
20260509215812 55 138 0.0 1.7 0.06 0.34 0.34 93 1010.0
20260509215328 55 153 0.0 1.7 0.08 0.34 0.34 93 1010.0
20260509214825 55 113 0.0 0.0 0.09 0.34 0.34 94 1010.0
20260509214323 55 116 0.0 0.0 0.10 0.34 0.34 93 1009.9
20260509213817 54 92 0.0 0.0 0.10 0.34 0.34 93 1010.0
20260509213314 54 13 0.0 0.0 0.11 0.34 0.34 93 1010.1
20260509212813 54 13 0.0 0.0 0.12 0.34 0.34 93 1010.1
20260509212332 54 13 0.0 0.0 0.13 0.34 0.34 93 1009.8
20260509211827 54 285 0.0 0.0 0.13 0.33 0.33 93 1010.1
20260509211323 54 313 0.0 0.0 0.14 0.32 0.32 92 1009.8
20260509210820 54 313 0.0 0.0 0.12 0.30 0.30 92 1010.0
20260509210317 54 313 0.0 0.9 0.12 0.29 0.29 92 1009.8
20260509205812 54 313 0.0 0.9 0.12 0.28 0.28 92 1009.9
20260509205312 54 313 0.0 1.7 0.10 0.26 0.26 92 1009.8
20260509204829 54 313 0.9 1.7 0.10 0.25 0.25 91 1009.8
20260509204326 54 347 0.0 1.7 0.09 0.24 0.24 91 1009.8
20260509203823 54 346 0.0 1.7 0.10 0.24 0.24 91 1009.7
20260509203320 54 342 0.9 3.5 0.10 0.23 0.23 91 1009.9
20260509202815 54 342 1.7 4.3 0.11 0.22 0.22 91 1009.8
20260509202311 54 349 0.0 4.3 0.10 0.21 0.21 90 1010.0
20260509201813 54 309 0.0 2.6 0.11 0.20 0.20 90 1010.1
20260509201328 54 340 0.9 2.6 0.12 0.18 0.18 90 1010.0
20260509200825 54 226 0.0 6.1 0.11 0.17 0.17 90 1010.1
20260509200321 54 269 1.7 7.0 0.12 0.17 0.17 90 1010.2
20260509195818 54 281 0.9 4.3 0.12 0.16 0.16 90 1010.3
20260509195315 54 317 0.9 4.3 0.13 0.16 0.16 90 1010.4
20260509194811 54 332 0.9 3.5 0.12 0.15 0.15 90 1010.5
20260509194311 54 278 0.9 2.6 0.12 0.15 0.15 90 1010.4
20260509193828 54 265 0.9 5.2 0.12 0.14 0.14 90 1010.4
20260509193325 54 22 1.7 5.2 0.11 0.13 0.13 90 1010.6
20260509192820 54 289 0.9 4.3 0.09 0.11 0.11 90 1010.5
20260509192337 54 355 1.7 4.3 0.08 0.10 0.10 89 1010.6
20260509191813 55 227 1.7 3.5 0.06 0.08 0.08 89 1010.4
20260509191329 55 267 0.9 4.3 0.05 0.06 0.06 89 1010.7
20260509190826 55 286 1.7 4.3 0.05 0.06 0.06 88 1010.7
20260509190327 55 277 0.0 6.1 0.04 0.05 0.05 88 1010.6
20260509185822 55 277 0.9 4.3 0.04 0.04 0.04 88 1010.6
20260509185320 55 333 0.9 3.5 0.03 0.03 0.03 88 1010.6
20260509184816 55 328 0.9 3.5 0.03 0.03 0.03 88 1010.5
20260509184313 56 294 0.9 2.6 0.03 0.03 0.03 88 1010.6
20260509183829 55 17 0.0 5.2 0.02 0.02 0.02 87 1010.4
20260509183346 55 204 1.7 8.7 0.02 0.02 0.02 86 1010.3
20260509182824 55 347 5.2 8.7 0.02 0.02 0.02 85 1010.2
20260509182322 56 360 2.6 8.7 0.02 0.02 0.02 84 1010.6
20260509181818 56 306 2.6 8.7 0.02 0.02 0.02 84 1010.8
20260509181314 57 330 1.7 4.3 0.01 0.01 0.01 84 1010.9
20260509180811 57 355 0.9 7.0 0.01 0.01 0.01 82 1011.0
20260509180328 58 234 1.7 7.0 0.00 0.00 0.00 80 1011.2
20260509175845 58 350 1.7 7.8 0.00 0.00 0.00 79 1011.2
20260509175319 59 324 1.7 7.8 0.00 0.00 0.00 77 1011.2
20260509174819 59 342 1.7 8.7 0.00 0.00 0.00 77 1011.1
20260509174317 59 168 0.9 8.7 0.00 0.00 0.00 76 1011.1
20260509173813 59 311 2.6 7.0 0.00 0.00 0.00 76 1010.9
20260509173330 60 324 0.9 5.2 0.00 0.00 0.00 76 1010.8
20260509172826 60 14 0.9 6.1 0.00 0.00 0.00 75 1010.7
20260509172344 61 207 2.6 7.8 0.00 0.00 0.00 73 1010.7
20260509171819 61 306 1.7 7.8 0.00 0.00 0.00 71 1010.7
20260509171336 62 347 2.6 6.1 0.00 0.00 0.00 71 1010.6
20260509170816 61 306 0.9 4.3 0.00 0.00 0.00 73 1010.6
20260509170313 61 15 1.7 7.0 0.00 0.00 0.00 70 1010.6
20260509165828 61 345 1.7 7.0 0.00 0.00 0.00 69 1010.7
20260509165326 61 309 0.0 3.5 0.00 0.00 0.00 69 1010.6
20260509164822 61 284 0.9 3.5 0.00 0.00 0.00 70 1010.6
20260509164318 61 327 0.9 2.6 0.00 0.00 0.00 69 1010.6
20260509163814 61 15 0.0 2.6 0.00 0.00 0.00 69 1010.6
20260509163315 61 242 0.0 7.0 0.00 0.00 0.00 70 1010.8
20260509162831 61 49 0.9 7.0 0.00 0.00 0.00 70 1010.8
20260509162327 61 59 0.0 4.3 0.00 0.00 0.00 71 1010.9
20260509161823 61 123 0.0 4.3 0.00 0.00 0.00 69 1011.0
20260509161321 61 174 0.9 4.3 0.00 0.00 0.00 67 1011.1
20260509160837 61 5 0.0 4.3 0.00 0.00 0.00 69 1011.0
20260509160333 61 348 0.9 4.3 0.00 0.00 0.00 70 1010.8
20260509155827 61 210 0.0 2.6 0.00 0.00 0.00 71 1011.1
20260509155327 61 307 0.0 3.5 0.00 0.00 0.00 69 1011.2
20260509154843 61 147 0.9 3.5 0.00 0.00 0.00 69 1011.4
20260509154317 61 103 0.0 3.5 0.00 0.00 0.00 70 1011.1
20260509153814 62 142 0.0 2.6 0.00 0.00 0.00 70 1011.2